Weather in Ostrovyanskiy

Russia / Rostov Oblast     46°45′42″N   42°12′25″E
temp.,
°C
wind,
m/s
gust,
m/s
humid.,
%
clouds,
%
prec.,
mm/h
press.,
hPa
HPBL,
m
22 may, sun
sun2200:00+14wsw81757100 0.1 1009839
03:00+14wsw8185067 0.1 1006775
06:00+13wsw9195775 0.0 1005653
09:00+16wsw91655100 0.0 1004757
12:00+16w8156299 0.1 1004913
15:00+18w9145986 0.8 10021210
18:00+15wnw6148592 0.1 1002987
21:00+13w51385100 0.1 1002577
23 may, mon
mon2300:00+13sw5118791 0.3 1002400
03:00+10sw4119659 0.3 1002275
06:00+11wsw4893100 0.0 1003282
09:00+16w6968100 0.0 10031136
12:00+16wnw7865100 0.3 10031156
15:00+16nw785987 0.3 10041416
18:00+13n676964 0.0 1005934
21:00+10n486914 0.1 1007211
24 may, tue
tue2400:00+8nnw227372 0.0 100823
03:00+7nnw348099 0.0 100972
06:00+9nnw2377100 0.0 101097
09:00+13nw235470 0.0 1011934
12:00+15nw4445100 0.1 10112079
15:00+15nnw344898 0.1 10121487
18:00+15nw3455100 0.0 1013686
21:00+12wnw235964 0.0 101550
25 may, wed
wed2500:00+11wnw356571 0.0 1015117
03:00+10w356197 0.0 101679
06:00+11w3770100 0.0 1017196
09:00+15w575270 0.0 1018993
12:00+18wnw7741100 0.0 10182429
15:00+18wnw6849100 0.0 10181864
18:00+16w4765100 0.2 1019487
21:00+13w4677100 0.2 1020112
26 may, thu
thu2600:00+11w468139 0.0 1020104
03:00+10w498997 0.0 1020165
06:00+11w38825 0.0 1021206
09:00+17w45605 0.0 1021618
12:00+20w455015 0.8 10201724
15:00+19wsw4756100 0.8 1019382
18:00+20wsw365499 0.0 1018896
21:00+14wsw4872100 0.0 1018119